Location: Briis
(48.6240°N, 2.1211°E)
Time: 03:26:39
(UTC+00:00)

Cosmos 1763 Rocket - Pass Details

Date: 25 September 2020
Orbit: 733 x 779 km, 74.0° (Epoch: 22 October)

Event Time Altitude Azimuth Distance (km) Brightness Sun altitude
Exits shadow 03:25:16 42° 192° (SSW) 1,109 4.0 -22.8°
Maximum altitude 03:27:08 81° 111° (ESE) 793 3.5 -22.5°
Drops below altitude 10° 03:32:27 10° 25° (NNE) 2,330 6.7 -21.7°
Sets 03:34:49 0° 24° (NNE) 3,256 7.5 -21.4°
